When you browse on this site, cookies collect data to enhance your experience and personalize the content and advertising you see.
Visit our Privacy Policy to learn more. By continuing to use the site, you agree to this use of cookies and data.
  • în România
  • Lista ţărilor
  • Pe 7 zile
  • Temperatura apei
  • Hartă satelitară
  • Meteo pe hartă
  • Widget-uri
  • user-avatar
    Intrare

    Meteo pe oră la San Juan

    Astăzi, 24 Martie, Duminică

    Timp Temperatura Precipitaţii Vânt Presiune Umiditate
    00:00 +26°C° 0 mm 4 m/s 709 mmHg 36%
    01:00 +26°C° 0 mm 4 m/s 709 mmHg 38%
    02:00 +25°C° 0 mm 5 m/s 709 mmHg 40%
    03:00 +25°C° 0 mm 5 m/s 709 mmHg 43%
    04:00 +23°C° 0 mm 6 m/s 709 mmHg 45%
    05:00 +23°C° 0 mm 6 m/s 710 mmHg 39%
    06:00 +23°C° 0 mm 7 m/s 710 mmHg 34%
    07:00 +23°C° 0 mm 7 m/s 710 mmHg 28%
    08:00 +24°C° 0 mm 6 m/s 710 mmHg 26%
    09:00 +26°C° 0 mm 6 m/s 710 mmHg 24%
    10:00 +27°C° 0 mm 5 m/s 710 mmHg 21%
    11:00 +27°C° 0 mm 5 m/s 709 mmHg 22%
    12:00 +28°C° 0 mm 4 m/s 708 mmHg 22%
    13:00 +28°C° 0 mm 4 m/s 708 mmHg 22%
    14:00 +28°C° 0 mm 3 m/s 707 mmHg 23%
    15:00 +28°C° 0 mm 3 m/s 707 mmHg 24%
    16:00 +28°C° 0 mm 3 m/s 706 mmHg 24%
    17:00 +27°C° 0 mm 3 m/s 706 mmHg 26%
    18:00 +26°C° 0 mm 3 m/s 707 mmHg 28%
    19:00 +25°C° 0 mm 3 m/s 707 mmHg 29%
    20:00 +24°C° 0 mm 3 m/s 707 mmHg 30%
    21:00 +24°C° 0 mm 3 m/s 708 mmHg 30%
    22:00 +24°C° 0 mm 3 m/s 708 mmHg 30%
    23:00 +22°C° 0 mm 3 m/s 708 mmHg 30%

    Mâine, 25 Martie, Luni

    Timp Temperatura Precipitaţii Vânt Presiune Umiditate
    00:00 +21°C° 0 mm 3 m/s 707 mmHg 30%
    01:00 +21°C° 0 mm 3 m/s 707 mmHg 30%
    02:00 +20°C° 0 mm 3 m/s 707 mmHg 31%
    03:00 +20°C° 0 mm 3 m/s 707 mmHg 31%
    04:00 +20°C° 0 mm 3 m/s 707 mmHg 32%
    05:00 +20°C° 0 mm 3 m/s 707 mmHg 32%
    06:00 +20°C° 0 mm 3 m/s 707 mmHg 32%
    07:00 +20°C° 0 mm 3 m/s 708 mmHg 33%
    08:00 +21°C° 0 mm 3 m/s 708 mmHg 32%
    09:00 +22°C° 0 mm 3 m/s 708 mmHg 31%
    10:00 +25°C° 0 mm 4 m/s 708 mmHg 30%
    11:00 +26°C° 0 mm 4 m/s 707 mmHg 30%
    12:00 +27°C° 0 mm 4 m/s 707 mmHg 30%
    13:00 +28°C° 0 mm 4 m/s 706 mmHg 30%
    14:00 +28°C° 0 mm 4 m/s 706 mmHg 30%
    15:00 +28°C° 0 mm 4 m/s 706 mmHg 30%
    16:00 +28°C° 0 mm 4 m/s 706 mmHg 30%
    17:00 +27°C° 0 mm 4 m/s 706 mmHg 33%
    18:00 +26°C° 0 mm 4 m/s 707 mmHg 36%
    19:00 +24°C° 0 mm 3 m/s 708 mmHg 39%
    20:00 +24°C° 0 mm 3 m/s 708 mmHg 41%
    21:00 +22°C° 0 mm 3 m/s 709 mmHg 42%
    22:00 +22°C° 0 mm 3 m/s 710 mmHg 44%
    23:00 +21°C° 0 mm 3 m/s 710 mmHg 49%

    Poimâine, 26 Martie, Marţi

    Timp Temperatura Precipitaţii Vânt Presiune Umiditate
    00:00 +21°C° 0 mm 3 m/s 710 mmHg 54%
    01:00 +20°C° 0 mm 3 m/s 709 mmHg 58%
    02:00 +20°C° 0 mm 3 m/s 709 mmHg 62%
    03:00 +19°C° 0 mm 3 m/s 709 mmHg 67%
    04:00 +19°C° 0 mm 3 m/s 709 mmHg 71%
    05:00 +19°C° 0 mm 3 m/s 709 mmHg 71%
    06:00 +18°C° 0 mm 4 m/s 710 mmHg 71%
    07:00 +18°C° 0 mm 4 m/s 710 mmHg 71%
    08:00 +19°C° 0 mm 4 m/s 710 mmHg 65%
    09:00 +21°C° 0 mm 4 m/s 710 mmHg 60%
    10:00 +22°C° 0 mm 4 m/s 710 mmHg 54%
    11:00 +22°C° 0 mm 4 m/s 710 mmHg 51%
    12:00 +23°C° 0 mm 4 m/s 709 mmHg 49%
    13:00 +25°C° 0 mm 4 m/s 709 mmHg 46%
    14:00 +23°C° 0 mm 5 m/s 708 mmHg 47%
    15:00 +23°C° 0 mm 5 m/s 708 mmHg 47%
    16:00 +23°C° 0 mm 5 m/s 708 mmHg 48%
    17:00 +22°C° 0 mm 5 m/s 708 mmHg 52%
    18:00 +21°C° 0 mm 5 m/s 709 mmHg 56%
    19:00 +20°C° 0 mm 5 m/s 709 mmHg 59%
    20:00 +19°C° 0 mm 4 m/s 710 mmHg 60%
    21:00 +19°C° 0 mm 3 m/s 710 mmHg 61%
    22:00 +18°C° 0 mm 2 m/s 711 mmHg 62%
    23:00 +18°C° 0 mm 2 m/s 710 mmHg 65%

    27 Martie, Miercuri

    Timp Temperatura Precipitaţii Vânt Presiune Umiditate
    00:00 +18°C° 0 mm 1 m/s 710 mmHg 68%
    01:00 +18°C° 0 mm 1 m/s 710 mmHg 70%
    02:00 +16°C° 0 mm 1 m/s 709 mmHg 73%
    03:00 +16°C° 0 mm 1 m/s 709 mmHg 75%
    04:00 +14°C° 0 mm 0 m/s 708 mmHg 77%
    05:00 +15°C° 0 mm 0 m/s 709 mmHg 75%
    06:00 +15°C° 0 mm 0 m/s 709 mmHg 72%
    07:00 +16°C° 0 mm 0 m/s 709 mmHg 70%
    08:00 +20°C° 0 mm 1 m/s 709 mmHg 63%
    09:00 +21°C° 0 mm 1 m/s 709 mmHg 57%
    10:00 +23°C° 0 mm 2 m/s 709 mmHg 51%
    11:00 +24°C° 0 mm 2 m/s 709 mmHg 47%
    12:00 +25°C° 0 mm 2 m/s 708 mmHg 43%
    13:00 +26°C° 0 mm 2 m/s 708 mmHg 39%
    14:00 +26°C° 0 mm 2 m/s 707 mmHg 38%
    15:00 +26°C° 0 mm 2 m/s 707 mmHg 37%
    16:00 +27°C° 0 mm 2 m/s 707 mmHg 36%
    17:00 +26°C° 0 mm 2 m/s 708 mmHg 39%
    18:00 +24°C° 0 mm 2 m/s 708 mmHg 42%
    19:00 +23°C° 0 mm 1 m/s 709 mmHg 45%
    20:00 +23°C° 0 mm 2 m/s 709 mmHg 48%
    21:00 +21°C° 0 mm 2 m/s 710 mmHg 50%
    22:00 +20°C° 0 mm 3 m/s 710 mmHg 52%
    23:00 +20°C° 0 mm 3 m/s 710 mmHg 55%

    28 Martie, Joi

    Timp Temperatura Precipitaţii Vânt Presiune Umiditate
    00:00 +19°C° 0 mm 3 m/s 709 mmHg 57%
    01:00 +19°C° 0 mm 3 m/s 709 mmHg 60%
    02:00 +18°C° 0 mm 3 m/s 709 mmHg 61%
    03:00 +18°C° 0 mm 3 m/s 709 mmHg 62%
    04:00 +18°C° 0 mm 3 m/s 709 mmHg 64%
    05:00 +19°C° 0 mm 3 m/s 709 mmHg 61%
    06:00 +19°C° 0 mm 3 m/s 709 mmHg 58%
    07:00 +20°C° 0 mm 3 m/s 710 mmHg 55%
    08:00 +21°C° 0 mm 3 m/s 710 mmHg 49%
    09:00 +24°C° 0 mm 3 m/s 710 mmHg 44%
    10:00 +26°C° 0 mm 2 m/s 710 mmHg 38%
    11:00 +27°C° 0 mm 2 m/s 709 mmHg 35%
    12:00 +28°C° 0 mm 2 m/s 709 mmHg 31%
    13:00 +29°C° 0 mm 2 m/s 708 mmHg 28%
    14:00 +29°C° 0 mm 2 m/s 708 mmHg 27%
    15:00 +29°C° 0 mm 2 m/s 708 mmHg 27%
    16:00 +30°C° 0 mm 2 m/s 708 mmHg 26%
    17:00 +28°C° 0 mm 2 m/s 709 mmHg 29%
    18:00 +26°C° 0 mm 2 m/s 709 mmHg 33%
    19:00 +25°C° 0 mm 1 m/s 709 mmHg 36%
    20:00 +24°C° 0 mm 2 m/s 710 mmHg 37%
    21:00 +24°C° 0 mm 2 m/s 710 mmHg 38%
    22:00 +23°C° 0 mm 2 m/s 710 mmHg 39%
    23:00 +22°C° 0 mm 3 m/s 710 mmHg 41%

    29 Martie, Vineri

    Timp Temperatura Precipitaţii Vânt Presiune Umiditate
    00:00 +21°C° 0 mm 3 m/s 709 mmHg 43%
    01:00 +21°C° 0 mm 4 m/s 709 mmHg 45%
    02:00 +21°C° 0 mm 3 m/s 709 mmHg 48%
    03:00 +20°C° 0 mm 3 m/s 708 mmHg 51%
    04:00 +20°C° 0 mm 3 m/s 708 mmHg 54%
    05:00 +21°C° 0 mm 3 m/s 708 mmHg 51%
    06:00 +22°C° 0 mm 3 m/s 709 mmHg 48%
    07:00 +24°C° 0 mm 3 m/s 709 mmHg 46%
    08:00 +25°C° 0 mm 3 m/s 709 mmHg 41%
    09:00 +27°C° 0 mm 2 m/s 709 mmHg 36%
    10:00 +29°C° 0 mm 2 m/s 709 mmHg 31%
    11:00 +30°C° 0 mm 2 m/s 708 mmHg 27%
    12:00 +31°C° 0 mm 2 m/s 707 mmHg 24%
    13:00 +32°C° 0 mm 2 m/s 706 mmHg 21%
    14:00 +32°C° 0 mm 2 m/s 706 mmHg 20%
    15:00 +32°C° 0 mm 2 m/s 706 mmHg 19%
    16:00 +32°C° 0 mm 1 m/s 706 mmHg 19%
    17:00 +30°C° 0 mm 1 m/s 706 mmHg 21%
    18:00 +28°C° 0 mm 1 m/s 706 mmHg 24%
    19:00 +26°C° 0 mm 1 m/s 707 mmHg 27%
    20:00 +26°C° 0 mm 1 m/s 707 mmHg 26%
    21:00 +26°C° 0 mm 2 m/s 707 mmHg 26%
    22:00 +25°C° 0 mm 2 m/s 707 mmHg 26%
    23:00 +25°C° 0 mm 2 m/s 707 mmHg 28%
    Arată mai mult